Terug naar catalogus

STARLINK-32003

ActiefCommunicatieVLEO
NORAD 60097·PAYLOAD·🇺🇸 United States

Gelanceerd Jun 23, 2024 vanaf Cape Canaveral Space Force Station

Loading…

Volgende Passages (komende 24 uur)

TLE

VersSource: CelesTrak SupGP

Epoch: Sep 14, 2026, 13:48 UTC

1 60097C 24117G   26257.57548611 -.00025436  00000+0 -75175-3 0  2572
2 60097  53.1570 237.5351 0001332  82.0966  48.1565 15.34393772    15

Volg STARLINK-32003 in realtime met AllMySat

Download on the App Store